Погода в Ловийсе

Финляндия     60°27′26″N   26°13′34″E
темп.,
°C
ветер,
м/с
пор.,
м/с
влажн.,
%
обл.,
%
осадки,
мм/ч
давл.,
гПа
погр.,
м
6 марта, сб
сб623:00−7зсз25920 0.0 1018121
02:00−8з23930 0.0 101867
05:00−8зюз278927 0.0 1015148
08:00−5юз4127460 0.0 1012577
11:00−1юз81592100 0.3 10061098
14:00−1юз71393100 2.0 1001814
17:00+1зюз71493100 0.1 996996
20:00+1зсз61384100 0.6 9931147
7 марта, вс
вс723:00−5сз396867 0.4 993311
02:00−5з5128050 0.4 9921201
05:00−7з51170100 0.1 990753
08:00−7зсз487798 0.1 9891089
11:00−6ссв4568100 0.2 9911020
14:00−5с6105868 0.2 9951360
17:00−6ссз5106851 0.0 999991
20:00−6ссз5118551 0.0 1002892
8 марта, пн
пн823:00−8с4983100 0.0 1005804
02:00−9с51082100 0.1 1009714
05:00−10с51082100 0.0 1011522
08:00−11с4981100 0.0 1014419
11:00−8с4771100 0.0 1015555
14:00−6с476460 0.0 10161003
17:00−7с367163 0.0 1017871
20:00−10всв128432 0.0 101927
9 марта, вт
вт923:00−11вюв018187 0.0 101921
02:00−10юв248194 0.0 1018170
05:00−9юв4893100 0.6 1016418
08:00−7юв61094100 3.6 1015575
11:00−7вюв81291100 1.9 1015739
14:00−8вюв71289100 2.8 1016730
17:00−9в61290100 0.6 1016665
20:00−11в61283100 0.9 1018605
10 марта, ср
ср1023:00−14всв5128360 0.0 1020443
02:00−15всв5118530 0.0 1022362
05:00−15всв410850 0.0 1023277
08:00−13в411791 0.0 1023460
11:00−9вюв59650 0.0 1024738
14:00−8вюв59660 0.0 1022729
17:00−9вюв49720 0.0 1021639
20:00−10вюв410820 0.0 1020319